This demonstration page uses our WeatherBlox Daily Observations layout. Learn more.

Left ArrowRight Arrow

Hourly Observations for October 22, 2021

Temp ( °F °C ) Dew Point ( °F °C ) Humidity (%) Winds ( mph kmh ) Pressure ( in mb ) Visibility ( mi km ) Precip ( " mm )
12:53 am 00:53 Clear 68 20 62 16.7 81 81 ESE 10 17 30.01 1016 10 16 N/A
1:53 am 01:53 Clear 66 18.9 61 16.1 84 84 ESE 9 15 29.99 1016 10 16 N/A
2:53 am 02:53 Clear 64 17.8 60 15.6 87 87 ESE 9 15 29.98 1015 10 16 N/A
3:53 am 03:53 Clear 64 17.8 61 16.1 90 90 ESE 9 15 29.97 1015 10 16 N/A
4:53 am 04:53 Clear 62 16.7 60 15.6 93 93 E 6 9 29.96 1015 9 14 N/A
5:53 am 05:53 Clear 62 16.7 61 16.1 96 96 ESE 8 13 29.97 1015 8 13 N/A
6:53 am 06:53 Clear 62 16.7 61 16.1 96 96 SE 7 11 29.98 1015 7 11 N/A
7:27 am 07:27 Mostly Clear with Mist and Fog 62 16.7 61 16.1 96 96 ESE 9 15 30.01 1016 5 8 N/A
7:53 am 07:53 Partly Cloudy with Mist and Fog 62 16.7 61 16.1 96 96 SE 9 15 29.98 1015 5 8 N/A
8:00 am 08:00 Mostly Cloudy with Mist and Fog 62 16.7 61 16.1 96 96 SE 8 13 30.01 1016 4 6 N/A
8:21 am 08:21 Cloudy with Mist and Fog 62 16.7 62 16.7 100 100 SE 6 9 30.01 1016 2 3 N/A
8:39 am 08:39 Cloudy with Mist and Fog 62 16.7 62 16.7 100 100 SE 12 19 30.01 1016 2 2 N/A
8:53 am 08:53 Cloudy with Mist and Fog 63 17.2 62 16.7 97 97 SE 12 19 29.98 1015 2 3 N/A
9:07 am 09:07 Cloudy with Mist and Fog 63 17.2 62 16.7 97 97 SE 13 20 30.01 1016 2 3 N/A
9:17 am 09:17 Cloudy with Mist and Fog 63 17.2 62 16.7 97 97 SE 12 19 30.01 1016 3 5 N/A
9:53 am 09:53 Cloudy with Mist and Fog 65 18.3 63 17.2 93 93 SSE 10 17 30.00 1016 6 10 N/A
10:14 am 10:14 Partly Cloudy 67 19.4 62 16.7 84 84 SE 12 19 30.00 1016 8 13 N/A
10:53 am 10:53 Sunny 71 21.7 62 16.7 73 73 SSE 9 15 29.99 1016 10 16 N/A
11:53 am 11:53 undefined 75 23.9 59 15 58 58 SSE 8 13 29.97 1015 10 16 N/A
12:53 pm 12:53 Sunny 78 25.6 58 14.4 50 50 S 7 11 29.95 1014 10 16 N/A
1:53 pm 13:53 Sunny 82 27.8 55 12.8 40 40 SE 3 6 29.91 1013 10 16 N/A
2:53 pm 14:53 Sunny 84 28.9 54 12.2 36 36 VRB 5 7 29.87 1011 10 16 N/A
3:53 pm 15:53 Sunny 86 30 52 11.1 31 31 VRB 3 6 29.84 1010 10 16 N/A
4:53 pm 16:53 Sunny 85 29.4 48 8.9 28 28 SW 3 6 29.82 1010 10 16 N/A
5:53 pm 17:53 Sunny 86 30 45 7.2 24 24 VRB 5 7 29.80 1009 10 16 N/A
6:53 pm 18:53 Sunny 85 29.4 43 6.1 23 23 S 9 15 29.79 1009 10 16 N/A
7:53 pm 19:53 Clear 77 25 45 7.2 32 32 SE 9 15 29.80 1009 10 16 N/A
8:53 pm 20:53 Clear 78 25.6 52 11.1 40 40 SE 15 24 29.80 1009 10 16 N/A
9:53 pm 21:53 Clear 76 24.4 52 11.1 43 43 SE 14 22 29.81 1010 10 16 N/A
10:53 pm 22:53 Clear 74 23.3 55 12.8 52 52 SE 15 24 29.80 1009 10 16 N/A
11:53 pm 23:53 Clear 72 22.2 59 15 64 64 SE 15 24 29.80 1009 10 16 N/A

Powered by AerisWeather